User: anonymous   Login
Location: Godiavel Galaoual
(15.2485°N, 12.6604°W)
Time: 18:18:26
(UTC+00:00)
Language:

AO-73 - Orbit

View from above orbital plane
View from above orbital plane
View from above satellite
View from above satellite

Ground track
Ground track

The orbit data is extracted from the following two-line orbital elements,

1 39444U 13066AE  21203.66803777  .00000601  00000-0  79105-4 0  9995
2 39444  97.5847 188.5441 0058659  37.1508 323.3744 14.82462206413249
Epoch (UTC): 22 July 2021 16:01:58
Eccentricity: 0.0058659
inclination: 97.5847°
perigee height: 580 km
apogee height: 662 km
right ascension of ascending node: 188.5441°
argument of perigee: 37.1508°
revolutions per day: 14.82462206
mean anomaly at epoch: 323.3744°
orbit number at epoch: 41324

The dashed part of the orbit path shows where the satellite is in the earth's shadow,  

DLR